User: anonymous   Login
Location: Unspecified
(0.0000°N, 0.0000°E)
Time: 12:19:42
(UTC+00:00)
Language:

USA 229 DEB - Orbit

View from above orbital plane
View from above orbital plane
View from above satellite
View from above satellite

Ground track
Ground track

The orbit data is extracted from the following two-line orbital elements,

1 37391U 11014B   17141.90221092 0.00000000  00000-0  00000-0 0    02
2 37391  63.4429  83.0529 0065000   3.9875 356.0125 13.40734725    01
Epoch (UTC): 21 May 2017 21:39:11
Eccentricity: 0.0065000
inclination: 63.4429°
perigee height: 1058 km
apogee height: 1155 km
right ascension of ascending node: 83.0529°
argument of perigee: 3.9875°
revolutions per day: 13.40734725
mean anomaly at epoch: 356.0125°
orbit number at epoch: 0

The dashed part of the orbit path shows where the satellite is in the earth's shadow,  

DLR